Home > Weather > St. Louis > Past weeks

Flag for USA Weather for the Past 2 Weeks in St. Louis, Missouri, USA

Now
68 °F

Low clouds.


Feels Like: 68 °F
Forecast: 56 / 73 °F
Wind: 5 mph from North

Location: Lambert-St. Louis International Airport

Current Time: May 1, 2016 at 1:09:52 PM

Latest Report: May 1, 2016 at 11:51 AM


Visibility: 10 mi

Pressure: 29.94 "Hg

Humidity: 70%

Dew Point: 58 °F

Location of St. LouisLocation

Historic Weather in St. Louis — Graph

°F

St. Louis Temperature Yesterday

Maximum temperature yesterday: 76 °F (at 4:51 PM)
Minimum temperature yesterday: 59 °F (at 1:00 AM)
Average temperature yesterday: 64 °F

High & Low Weather Summary for the Past Weeks

 TemperatureHumidityPressure
High87 °F (Apr 25, 3:51 PM)94% (Apr 21, 2:58 AM)30.32 "Hg (Apr 21, 2:58 AM)
Low51 °F (Apr 23, 5:51 AM)22% (Apr 18, 3:51 PM)29.58 "Hg (Apr 27, 5:51 PM)
Average67 °F64%29.94 "Hg
* Reported Apr 16 11:51 AM — May 1 11:51 AM, St. Louis, Weather by CustomWeather, © 2016

Note: Actual official high and low records may vary slightly from our data, if they occured in-between our weather recording intervals... More about our weather records

Advertising

St. Louis Weather History for the Previous 24 Hours

Scroll right to see more
 ConditionsComfort  
Time TempWeatherWind HumidityBarometerVisibility
11:51 AM
Sun, May 1
68 °FLow clouds.5 mph70%29.94 "Hg10 mi
10:51 AM63 °FLow clouds.8 mph81%29.93 "Hg9 mi
9:51 AM63 °FLow clouds.No wind84%29.91 "Hg10 mi
8:51 AM62 °FLow clouds.7 mph86%29.90 "Hg10 mi
7:51 AM63 °FScattered clouds.5 mph84%29.88 "Hg8 mi
6:51 AM60 °FFog.No wind86%29.85 "Hg5 mi
5:51 AM59 °FPassing clouds.5 mph87%29.85 "Hg9 mi
4:51 AM59 °FPassing clouds.No wind90%29.83 "Hg10 mi
3:51 AM60 °FPassing clouds.6 mph86%29.83 "Hg10 mi
2:51 AM61 °FPartly cloudy.No wind83%29.82 "Hg10 mi
1:51 AM62 °FPartly cloudy.9 mph83%29.83 "Hg10 mi
12:51 AM62 °FPassing clouds.5 mph83%29.83 "Hg10 mi
11:51 PM
Sat, Apr 30
62 °FLight rain. Mostly cloudy.9 mph86%29.83 "Hg9 mi
10:51 PM61 °FPartly cloudy.8 mph81%29.83 "Hg10 mi
9:51 PM62 °FPassing clouds.10 mph75%29.80 "Hg10 mi
8:51 PM62 °FBroken clouds.8 mph73%29.79 "Hg10 mi
7:51 PM63 °FThunderstorms. Broken clouds.10 mph78%29.76 "Hg10 mi
6:51 PM72 °FThunderstorms. Partly sunny.10 mph71%29.74 "Hg10 mi
5:51 PM75 °FBroken clouds.9 mph62%29.72 "Hg10 mi
4:51 PM76 °FBroken clouds.8 mph60%29.72 "Hg10 mi
3:51 PM75 °FScattered clouds.8 mph64%29.72 "Hg10 mi
2:51 PM71 °FBroken clouds.7 mph73%29.73 "Hg10 mi
1:51 PM68 °FMostly cloudy.9 mph78%29.72 "Hg10 mi
Weather by CustomWeather, © 2016

See weather overviewHow to use our weather pages